This demonstration page uses our WeatherBlox Daily Observations layout. Learn more.

Left ArrowRight Arrow

39.29038, -76.61219

Hourly Observations for May 25, 2021

Temp ( °F °C ) Dew Point ( °F °C ) Humidity (%) Winds ( mph kmh ) Pressure ( in mb ) Visibility ( mi km ) Precip ( " mm )
12:54 am 00:54 Cloudy 57 13.9 52 11.1 83 83 E 6 9 30.30 1026 10 16 0.00 0.00
1:54 am 01:54 Cloudy 57 13.9 52 11.1 83 83 ESE 6 9 30.29 1026 10 16 N/A
2:54 am 02:54 Cloudy 57 13.9 52 11.1 83 83 SE 5 7 30.27 1025 10 16 N/A
3:54 am 03:54 Cloudy 57 13.9 51 10.6 81 81 ESE 3 6 30.27 1025 10 16 N/A
4:54 am 04:54 Cloudy 58 14.4 52 11.1 81 81 N N/A 30.26 1025 10 16 N/A
5:54 am 05:54 Cloudy 58 14.4 52 11.1 81 81 N N/A 30.27 1025 10 16 N/A
6:22 am 06:22 Cloudy 59 15 52 11.1 78 78 SSE 3 6 30.28 1025 10 16 N/A
6:54 am 06:54 Cloudy 59 15 53 11.7 81 81 SE 3 6 30.29 1026 10 16 N/A
7:54 am 07:54 Cloudy 60 15.6 53 11.7 78 78 SSE 5 7 30.29 1026 10 16 N/A
8:54 am 08:54 Cloudy 61 16.1 53 11.7 75 75 SE 6 9 30.29 1026 10 16 N/A
9:54 am 09:54 Cloudy 62 16.7 54 12.2 75 75 SSE 6 9 30.28 1026 10 16 N/A
10:54 am 10:54 Cloudy 65 18.3 55 12.8 70 70 VRB 3 6 30.28 1025 10 16 N/A
11:10 am 11:10 Cloudy 65 18.3 55 12.8 70 70 SW 5 7 30.28 1025 10 16 N/A
11:54 am 11:54 Cloudy 66 18.9 55 12.8 68 68 N N/A 30.27 1025 10 16 N/A
12:54 pm 12:54 Cloudy 70 21.1 57 13.9 64 64 S 6 9 30.26 1025 10 16 N/A
1:54 pm 13:54 Mostly Cloudy 73 22.8 58 14.4 59 59 SW 8 13 30.24 1024 10 16 N/A
2:54 pm 14:54 Mostly Cloudy 75 23.9 60 15.6 60 60 S 8 13 30.21 1023 10 16 N/A
3:54 pm 15:54 Mostly Cloudy 77 25 61 16.1 58 58 ESE 12 19 30.18 1022 10 16 N/A
4:54 pm 16:54 Mostly Cloudy 75 23.9 60 15.6 60 60 SE 10 17 30.16 1021 10 16 N/A
5:54 pm 17:54 Mostly Cloudy 74 23.3 60 15.6 62 62 SE 9 15 30.15 1021 10 16 N/A
6:54 pm 18:54 Partly Cloudy 73 22.8 61 16.1 66 66 SE 9 15 30.14 1021 10 16 N/A
7:54 pm 19:54 Mostly Cloudy 70 21.1 61 16.1 73 73 SE 7 11 30.14 1021 10 16 N/A
8:54 pm 20:54 Mostly Cloudy 68 20 61 16.1 78 78 SSE 6 9 30.15 1021 10 16 N/A
9:54 pm 21:54 Mostly Cloudy 67 19.4 61 16.1 81 81 SSE 5 7 30.15 1021 10 16 N/A
10:54 pm 22:54 Partly Cloudy 66 18.9 61 16.1 84 84 N N/A 30.16 1021 10 16 N/A
11:54 pm 23:54 Partly Cloudy 66 18.9 62 16.7 87 87 N N/A 30.15 1021 10 16 N/A

Powered by AerisWeather